Zurück zum Katalog

STARLINK-5446

AktivKommunikationVLEO
NORAD 54789·PAYLOAD·🇺🇸 United States

Gestartet Dec 17, 2022 von Cape Canaveral Space Force Station

Loading…

Nächste Überflüge (nächste 24 Stunden)

TLE

AktuellSource: CelesTrak SupGP

Epoche: Sep 14, 2026, 21:13 UTC

1 54789C 22175AH  26257.88451389  .00539350  00000+0  21824-1 0  2577
2 54789  53.1591 243.0928 0001329  98.1949 328.2157 15.23905852    11

Verfolge STARLINK-5446 in Echtzeit mit AllMySat

Download on the App Store